Location: Warszawa
(52.2500°N, 21.0000°E)
Time: 19:07:42
(UTC+01:00)

Transit 4A - Visible Passes

Search period start: 30 January 2023 00:00
Search period end: 09 February 2023 00:00
Orbit: 871 x 973 km, 66.8° (Epoch: 30 January)

Date Brightness Start Highest point End Pass type
(mag) Time Alt. Az. Time Alt. Az. Time Alt. Az.
30 Jan 8.0 18:09:37 10° S 18:15:10 48° ESE 18:17:54 28° ENE visible
30 Jan 8.6 19:56:00 10° WSW 20:01:27 46° NW 20:01:27 46° NW visible
30 Jan 10.7 21:44:57 10° WNW 21:45:00 10° WNW 21:45:00 10° WNW visible
31 Jan 7.7 18:18:32 10° SSW 18:24:17 67° ESE 18:27:32 27° NE visible
31 Jan 9.0 20:05:40 10° WSW 20:11:02 37° NW 20:11:04 37° NNW visible
01 Feb 7.7 18:27:38 10° SW 18:33:28 89° SE 18:37:04 25° NE visible
01 Feb 9.2 20:15:24 10° W 20:20:31 31° NNW 20:20:36 31° NNW visible
02 Feb 8.0 18:36:54 10° SW 18:42:43 70° NW 18:46:31 23° NNE visible
02 Feb 9.5 20:25:13 10° W 20:30:03 26° NNW 20:30:03 26° NNW visible
03 Feb 8.4 17:00:30 10° S 17:05:50 39° ESE 17:11:12 10° NE visible
03 Feb 8.4 18:46:21 10° WSW 18:52:03 54° NW 18:55:53 21° NNE visible
03 Feb 9.7 20:35:05 10° WNW 20:39:25 23° NNW 20:39:25 23° NNW visible
04 Feb 8.0 17:09:16 10° SSW 17:14:54 54° ESE 17:20:35 10° NE visible
04 Feb 8.8 18:55:55 10° WSW 19:01:26 43° NW 19:05:12 20° NNE visible
04 Feb 9.8 20:44:56 10° WNW 20:48:44 21° NNW 20:48:44 21° NNW visible
05 Feb 7.8 17:18:15 10° SSW 17:24:02 74° SE 17:29:53 10° NE visible
05 Feb 9.1 19:05:36 10° W 19:10:53 35° NNW 19:14:27 19° NNE visible
05 Feb 9.9 20:54:45 10° NW 20:57:59 19° NNW 20:57:59 19° NNW visible
06 Feb 7.9 17:27:25 10° SW 17:33:14 84° NW 17:39:08 10° NE visible
06 Feb 9.3 19:15:22 10° W 19:20:24 29° NNW 19:23:40 18° NNE visible
06 Feb 10.0 21:04:29 10° NW 21:07:11 18° NNW 21:07:11 18° NNW visible
07 Feb 8.2 17:36:44 10° SW 17:42:31 64° NW 17:48:22 10° NE visible
07 Feb 9.5 19:25:12 10° WNW 19:29:58 25° NNW 19:32:50 18° NNE visible
07 Feb 10.1 21:14:06 10° NW 21:16:21 17° NNW 21:16:21 17° NNW visible
08 Feb 8.6 17:46:13 10° WSW 17:51:52 50° NW 17:57:34 10° NE visible
08 Feb 9.6 19:35:04 10° WNW 19:39:34 22° NNW 19:41:58 18° NNE visible
08 Feb 10.2 21:23:37 10° NW 21:25:29 16° NNW 21:25:29 16° NNW visible
